Theta_e
338 330 334 329 331 333 329 323 322 321 322 324 330 331 330 330 330 330 331 330 329 327 323 316 326 332 336 338 337 336 332 330 328 326 321 315 313 311 310 311 329 331 332
332 335 338 332 330 330 327 326 326 321 319 317 321 328 330 332 332 332 328 327 324 318 313 313 323 331 333 333 332 330 330 327 325 315 311 322 321 314 313 317 323 329 329
336 335 339 336 333 330 328 328 326 323 335 333 326 333 334 332 329 327 322 314 313 312 313 315 319 328 330 329 328 327 326 321 312 312 322 324 325 322 314 316 321 325 323
342 334 334 333 333 334 330 329 326 321 333 329 325 329 331 329 326 316 315 314 314 313 313 314 313 311 313 314 315 314 315 313 316 324 324 321 323 322 319 312 315 318 326
346 338 337 339 337 336 332 330 326 321 324 327 323 326 328 327 323 321 322 318 316 316 315 315 316 316 316 316 317 317 317 317 324 328 328 327 323 324 321 318 313 313 317
347 346 340 340 341 339 336 332 327 320 319 327 327 327 329 325 327 326 325 324 319 318 318 320 326 323 322 323 323 323 323 323 324 329 328 329 325 325 323 322 321 319 317
347 347 346 339 341 338 336 333 326 319 321 327 326 325 325 328 331 330 326 325 322 319 319 325 328 326 328 329 327 326 325 324 327 331 331 330 329 328 324 322 325 329 325
346 348 347 340 340 340 337 334 325 319 318 325 329 329 330 330 332 333 331 326 323 318 319 324 328 331 329 329 328 325 322 320 325 330 330 326 325 321 317 321 327 329 333
346 348 344 340 341 340 338 336 330 322 318 324 328 329 330 330 332 332 333 331 329 320 319 326 328 328 328 326 324 322 319 319 318 317 321 322 320 314 313 315 316 319 323
344 346 345 342 341 341 339 338 330 323 318 323 325 328 330 331 333 333 333 333 331 320 320 325 325 326 326 323 322 317 313 315 314 317 315 315 313 311 312 312 313 314 315
343 344 347 342 341 342 339 339 335 329 321 319 323 324 328 331 331 331 330 328 325 318 322 324 324 325 324 323 322 314 311 311 311 312 311 311 312 312 311 314 315 315 318
341 343 344 344 344 341 342 339 337 332 325 319 319 320 324 330 330 329 327 323 318 319 323 324 325 326 325 323 317 310 310 310 309 309 310 311 311 311 321 320 318 321 321
340 341 342 342 342 341 340 339 338 336 329 325 323 321 327 328 327 329 321 318 321 324 324 324 324 325 322 313 311 310 308 307 306 308 308 308 306 315 322 319 318 317 319
339 340 341 342 341 342 340 340 338 336 333 330 332 330 326 321 320 323 331 330 330 326 324 325 325 324 312 310 308 307 305 305 305 306 306 307 305 306 307 309 309 311 313
336 339 341 341 343 342 338 339 338 335 336 332 334 332 326 324 322 329 331 330 326 324 325 326 324 311 309 309 306 304 303 303 303 305 305 306 305 306 307 308 309 309 310
330 336 339 340 341 343 341 340 338 335 336 334 334 333 328 327 329 331 330 325 325 326 326 325 312 310 310 307 304 303 303 302 303 303 305 305 304 305 306 306 307 306 306
327 331 337 340 340 339 341 340 339 336 337 335 334 334 330 331 330 330 327 327 327 326 325 312 311 311 309 307 304 302 302 302 302 303 304 304 303 303 302 301 300 299 299
326 327 333 337 340 338 332 341 338 337 338 336 334 333 331 331 331 330 328 328 327 326 315 311 312 311 309 306 303 301 301 301 302 302 302 302 302 302 302 301 299 299 300
326 326 329 333 338 338 334 337 338 337 336 336 334 332 332 331 332 327 328 327 326 323 310 312 312 312 309 306 302 301 301 301 302 302 301 302 301 301 298 298 298 298 298
324 325 326 330 335 338 333 335 336 337 336 335 334 332 332 333 329 329 328 327 325 310 312 312 313 312 309 305 301 301 301 300 302 301 303 302 299 299 298 298 298 298 298
322 323 326 325 326 334 337 337 335 336 335 334 334 333 334 331 329 329 328 327 321 311 312 313 313 312 309 304 301 301 302 301 301 303 303 299 299 298 297 297 298 298 297
322 322 324 325 325 327 334 334 332 335 335 334 335 335 333 331 330 329 327 325 310 313 313 313 313 312 310 305 301 300 301 301 301 300 299 299 298 297 297 297 297 297 297
321 323 324 324 325 324 332 335 336 336 334 334 333 334 332 331 330 329 326 316 310 313 313 313 312 311 310 306 301 300 299 301 300 299 298 298 297 297 297 297 297 296 295
320 321 323 324 324 326 329 334 331 331 334 333 334 333 332 330 330 328 322 310 311 312 312 312 311 310 309 305 302 299 298 297 297 297 298 298 297 297 296 296 296 295 294
316 320 320 323 325 327 330 332 332 333 333 332 332 330 329 329 328 323 315 310 311 312 311 311 310 310 308 305 301 298 297 296 296 295 295 296 296 295 295 294 294 293 292
315 315 320 322 324 330 331 333 329 329 331 331 329 329 329 326 324 316 311 310 311 311 310 310 309 309 307 305 301 298 297 296 295 295 294 295 294 294 293 293 292 292 291
Wind_Speed
11 16 12 14 12 10 8 7 7 7 6 7 7 6 5 4 2 1 1 3 5 7 6 4 6 9 9 13 9 4 1 6 4 6 7 8 7 6 5 3 2 2 4
12 17 15 15 12 11 9 8 7 7 8 8 9 9 7 6 5 3 4 5 5 5 5 4 7 7 5 3 1 2 4 6 8 6 6 7 11 10 8 4 4 1 3
15 18 17 15 12 11 10 8 7 9 11 10 11 12 11 8 6 5 5 5 7 7 8 8 6 5 4 2 3 7 7 7 7 8 11 11 12 11 8 4 2 1 2
14 18 17 16 16 10 9 7 7 10 10 8 8 10 10 7 6 7 10 11 11 11 11 11 10 7 3 1 3 5 7 7 10 9 10 3 2 7 9 6 5 3 3
13 14 17 16 14 10 7 6 6 8 10 8 13 14 12 12 9 9 11 11 11 11 11 11 11 10 9 9 8 9 10 10 8 9 7 7 4 7 9 7 6 6 6
12 16 13 17 14 8 7 6 6 7 11 15 14 14 14 14 11 8 8 9 10 10 10 10 11 11 11 10 10 10 10 10 7 9 7 7 8 8 10 10 8 6 6
18 18 13 14 13 8 6 7 7 8 12 14 15 15 14 11 7 6 6 7 7 7 8 8 9 9 9 9 10 10 10 9 7 7 5 8 8 11 12 9 8 9 7
19 18 14 15 14 10 8 7 7 7 10 13 13 13 12 9 6 6 4 4 4 6 6 7 7 6 6 8 9 10 10 9 6 1 5 7 9 11 10 8 6 6 7
15 15 12 17 14 12 11 9 7 5 9 13 13 11 11 8 5 9 6 2 3 3 4 4 5 6 7 8 8 9 10 7 4 6 1 7 8 9 10 10 8 8 9
18 15 13 17 18 16 15 11 9 6 9 13 12 10 9 8 7 8 8 6 2 2 2 3 4 6 7 7 8 10 8 5 6 3 7 9 9 11 11 11 10 10 10
17 14 11 10 14 16 17 14 12 8 10 12 12 11 9 7 7 8 7 5 3 1 1 3 5 6 7 8 10 10 7 7 6 8 12 12 12 13 12 11 11 9 9
18 20 15 9 14 15 17 16 14 10 11 12 12 11 11 7 7 7 6 5 4 2 2 4 5 5 7 9 11 11 11 11 8 9 13 13 13 9 3 7 7 5 5
16 18 20 20 19 17 18 15 17 14 14 14 10 11 12 15 13 10 4 4 4 3 3 3 5 7 9 10 12 12 12 13 8 9 13 13 9 2 1 3 5 7 8
19 19 22 20 21 19 19 17 16 14 10 13 10 10 13 12 13 9 4 6 5 3 3 3 6 8 10 12 14 14 12 10 5 9 11 10 6 5 4 7 7 7 8
20 20 23 24 23 24 20 18 18 16 16 11 13 14 11 12 12 13 15 12 10 6 5 6 7 9 12 13 12 12 11 8 3 8 9 8 5 6 6 7 8 9 10
18 20 22 22 28 24 22 20 21 18 17 11 15 14 11 8 14 19 15 12 7 6 6 6 8 10 11 12 11 9 10 7 5 4 8 7 5 6 7 8 9 10 11
20 22 24 24 24 29 31 21 23 19 19 19 17 15 14 16 17 13 13 11 9 8 7 5 8 10 11 11 11 8 9 7 5 3 7 8 7 6 6 7 10 10 11
21 23 24 27 26 23 26 27 22 19 19 21 20 17 20 20 18 15 13 11 10 8 6 4 7 10 11 12 10 8 8 9 4 6 6 6 7 9 11 11 12 13 15
27 23 25 29 30 28 25 27 26 22 23 21 21 22 23 22 18 14 12 11 11 8 4 5 7 9 11 11 9 7 8 4 2 4 4 7 9 9 11 12 13 15 16
32 28 27 27 30 30 29 24 27 27 27 22 23 25 27 19 17 17 15 14 11 7 3 4 7 10 11 11 8 6 6 3 4 4 6 6 10 14 14 15 14 16 20
35 35 33 29 32 33 35 29 30 34 31 28 29 31 25 21 22 19 15 13 12 7 2 4 7 9 10 11 8 4 3 6 6 3 7 7 13 16 15 15 19 22 22
30 33 29 32 31 36 35 34 32 36 32 33 36 35 27 26 24 21 17 14 12 7 2 3 7 10 11 11 10 5 1 3 4 3 10 15 12 13 17 22 24 26 24
34 31 27 32 28 32 35 35 35 37 36 37 37 32 31 28 26 24 19 17 13 8 3 2 6 8 11 11 9 6 1 2 8 8 6 11 9 15 21 24 27 27 24
35 35 34 29 33 33 39 43 40 40 44 43 41 37 33 31 29 25 22 18 14 9 4 2 5 8 10 10 10 6 4 6 4 7 8 11 19 16 23 25 27 26 27
32 34 36 35 32 40 43 44 40 41 43 41 38 36 35 33 30 26 23 20 15 9 4 3 5 8 10 10 9 9 8 7 7 9 21 20 24 25 25 25 27 25 23
27 41 31 40 36 37 42 42 39 39 42 42 39 38 38 34 32 27 25 20 15 10 5 3 6 8 10 10 10 10 10 9 7 12 20 27 30 31 29 28 21 22 23
Wind_Direction
185 169 166 150 155 141 137 127 125 137 158 178 180 176 181 180 173 124 18 354 344 340 344 359 139 120 101 105 107 86 281 338 351 338 330 326 339 348 327 308 161 76 277
165 164 159 153 152 148 141 126 111 106 119 132 140 139 139 129 110 86 36 6 343 359 31 61 144 117 134 144 338 20 319 325 343 358 25 24 18 5 8 51 119 134 308
170 162 157 160 153 148 136 118 105 113 117 120 129 147 138 122 87 46 29 43 65 63 67 81 111 172 182 217 271 313 310 334 16 66 61 38 4 346 355 354 34 45 359
169 157 158 159 151 142 134 127 118 129 139 123 124 153 146 127 103 79 76 68 65 67 71 73 72 77 84 17 354 1 18 46 63 61 51 49 255 339 350 338 335 328 329
179 158 159 157 150 144 144 137 118 120 141 125 131 139 141 136 125 96 78 70 67 65 67 70 69 67 65 59 53 45 45 53 56 52 37 356 341 347 350 345 333 329 339
172 175 164 159 158 152 146 146 127 123 137 143 135 136 143 141 129 106 84 75 73 68 66 68 61 57 58 52 49 45 41 42 41 46 9 338 337 333 338 335 331 345 343
168 187 183 173 157 153 158 149 137 132 141 148 145 143 148 145 135 113 91 81 68 70 68 70 72 61 52 39 28 23 20 19 38 47 342 315 319 318 324 328 342 345 337
184 194 196 177 166 168 166 153 147 131 153 159 158 156 153 153 151 176 140 93 74 72 65 73 68 50 33 19 10 9 12 17 60 71 290 315 319 329 337 347 339 315 324
190 212 193 181 172 187 178 179 181 151 163 163 166 161 154 155 153 165 171 125 113 56 60 63 43 27 14 5 5 9 5 10 10 14 9 293 308 326 329 329 331 321 303
179 213 194 194 187 191 188 198 191 170 176 175 172 162 164 163 143 163 174 177 181 19 47 28 7 3 0 0 5 1 9 354 358 330 294 293 305 313 314 315 312 308 309
177 195 214 207 209 203 193 194 205 192 187 184 181 175 169 177 185 189 185 194 225 283 352 345 346 347 349 347 351 351 340 332 321 293 291 295 297 303 313 307 303 316 323
185 184 205 206 203 200 204 198 209 207 200 187 186 186 178 168 209 197 204 213 225 232 296 324 323 328 341 341 334 326 319 317 314 290 292 294 298 313 323 281 303 306 291
202 195 191 193 213 212 224 209 209 225 208 191 185 179 169 200 201 204 211 204 224 210 238 311 322 338 329 327 322 318 313 309 320 284 287 299 303 226 130 339 274 288 291
201 202 198 194 202 210 214 211 206 210 210 186 195 204 200 203 186 178 171 177 197 224 238 267 303 318 322 325 318 318 313 308 302 288 292 307 302 279 279 279 299 298 293
212 204 215 202 207 213 221 214 202 195 218 210 200 205 209 193 175 165 198 211 217 219 252 291 309 320 323 323 322 319 320 316 293 271 289 304 300 292 295 299 302 301 300
222 211 215 228 207 203 208 212 211 193 209 201 202 212 191 194 171 197 212 212 226 243 261 290 312 325 330 325 326 323 321 313 308 263 275 295 301 289 293 300 300 300 299
221 223 214 222 222 211 198 210 211 198 195 201 196 211 176 201 197 213 212 221 237 253 271 301 324 332 331 328 328 323 313 309 289 279 261 287 293 297 302 306 304 305 305
232 225 215 215 222 227 207 197 208 196 206 215 207 201 193 203 210 222 214 229 237 255 266 307 336 340 340 337 331 322 298 301 250 242 265 259 299 307 305 306 308 304 304
235 231 220 212 214 227 228 203 200 196 206 207 210 199 206 214 218 211 214 233 246 242 264 324 345 350 351 345 335 326 328 320 221 237 289 314 305 303 299 302 307 313 315
235 233 221 214 210 215 228 220 196 200 211 208 208 207 215 213 208 204 211 225 232 225 252 330 355 2 3 357 346 343 340 326 245 232 232 272 296 298 307 305 315 319 314
233 236 224 218 214 213 219 220 198 201 209 206 207 207 203 207 209 212 212 222 212 211 249 348 2 8 13 9 8 9 14 346 331 250 274 290 292 295 300 301 312 318 313
233 235 226 218 219 217 218 223 205 201 207 208 205 202 208 208 210 210 213 210 202 207 215 2 5 4 17 15 18 35 15 277 292 282 282 273 287 301 308 310 314 316 315
234 231 233 217 221 221 211 212 206 201 206 209 210 212 205 204 207 208 210 201 200 204 213 353 6 5 8 15 17 21 0 256 292 284 292 289 299 296 303 308 313 313 313
237 232 230 227 222 216 210 215 220 213 207 212 211 209 199 200 205 205 202 199 201 204 213 322 357 3 5 5 359 357 328 290 299 290 259 268 290 294 302 309 309 312 314
243 235 230 230 224 214 210 219 220 215 213 216 213 200 194 197 204 201 200 193 200 206 222 307 341 354 358 357 348 338 326 311 303 287 298 306 299 303 310 312 315 305 315
248 239 233 222 219 216 216 221 217 216 213 215 210 197 194 198 200 198 198 196 199 210 229 294 330 341 348 346 339 330 320 312 290 277 286 299 305 312 312 315 317 316 312